TimePST,TemperatureF,Dew PointF,Humidity,Sea Level PressureIn,VisibilityMPH,Wind Direction,Wind SpeedMPH,Gust SpeedMPH,PrecipitationIn,Events,Conditions,WindDirDegrees,DateUTC
12:00 AM,45.3,43.7,94,30.17,-9999.0,ESE,15.0,-,0.01,,Unknown,110,2013-03-01 08:00:00
1:00 AM,46.0,44.4,94,30.17,-9999.0,ESE,16.1,-,N/A,,Unknown,120,2013-03-01 09:00:00
2:00 AM,46.9,45.1,93,30.18,-9999.0,ESE,11.5,-,N/A,,Unknown,120,2013-03-01 10:00:00
3:00 AM,46.8,44.8,93,30.17,-9999.0,ESE,11.5,-,0.01,,Unknown,110,2013-03-01 11:00:00
4:00 AM,48,46,89,30.17,,East,3.5,,,,,90,2013-03-01 12:00:00
4:00 AM,47.7,45.9,93,30.17,-9999.0,East,3.5,-,0.02,,Unknown,90,2013-03-01 12:00:00
5:00 AM,-9999,-9999,N/A,-9999,-9999.0,North,-9999.0,-,N/A,,Unknown,0,2013-03-01 13:00:00
6:00 AM,47.7,45.3,92,30.16,-9999.0,ENE,4.6,-,0.01,,Unknown,70,2013-03-01 14:00:00
7:00 AM,47.8,45.5,92,30.17,-9999.0,SE,5.8,-,0.01,,Unknown,140,2013-03-01 15:00:00
8:00 AM,48.4,45.9,91,30.17,-9999.0,SSE,11.5,-,N/A,,Unknown,150,2013-03-01 16:00:00
10:00 AM,49,46,84,30.18,,SE,8.1,,,,,140,2013-03-01 18:00:00
10:00 AM,48.9,45.7,89,30.18,-9999.0,SE,8.1,-,N/A,,Unknown,140,2013-03-01 18:00:00
11:00 AM,49.1,45.9,89,30.19,-9999.0,SE,11.5,-,N/A,,Unknown,140,2013-03-01 19:00:00
12:00 PM,49.5,46.0,88,30.18,-9999.0,SE,16.1,-,N/A,,Unknown,140,2013-03-01 20:00:00
1:00 PM,48.4,45.5,90,30.21,-9999.0,ESE,19.6,44.9,0.01,,Unknown,120,2013-03-01 21:00:00
2:00 PM,48.4,45.9,91,30.19,-9999.0,ESE,11.5,-,0.04,,Unknown,120,2013-03-01 22:00:00
3:00 PM,48.7,46.0,90,30.19,-9999.0,SE,13.8,-,0.01,,Unknown,130,2013-03-01 23:00:00
4:00 PM,49,47,88,30.19,,ESE,10.4,,,,,120,2013-03-02 00:00:00
4:00 PM,48.9,46.6,92,30.19,-9999.0,ESE,10.4,-,0.05,,Unknown,120,2013-03-02 00:00:00
5:00 PM,49.3,46.9,92,30.19,-9999.0,SSE,12.7,23.0,0.04,,Unknown,150,2013-03-02 01:00:00
6:00 PM,49.5,46.2,89,30.19,-9999.0,SSE,5.8,-,0.03,,Unknown,150,2013-03-02 02:00:00
7:00 PM,48.0,45.7,92,30.19,-9999.0,SSE,12.7,-,N/A,,Unknown,150,2013-03-02 03:00:00
8:00 PM,48.7,46.8,93,30.20,-9999.0,SSE,11.5,-,0.01,,Unknown,150,2013-03-02 04:00:00
9:00 PM,47.7,45.9,93,30.21,-9999.0,SE,8.1,-,N/A,,Unknown,130,2013-03-02 05:00:00
10:00 PM,47,46,92,30.20,,SSE,8.1,,,,,160,2013-03-02 06:00:00
10:00 PM,47.3,45.5,93,30.20,-9999.0,SSE,8.1,-,N/A,,Unknown,160,2013-03-02 06:00:00
11:00 PM,50.4,47.1,89,30.20,-9999.0,South,5.8,-,N/A,,Unknown,170,2013-03-02 07:00:00